TimeCDT,TemperatureF,Dew PointF,Humidity,Sea Level PressureIn,VisibilityMPH,Wind Direction,Wind SpeedMPH,Gust SpeedMPH,PrecipitationIn,Events,Conditions,WindDirDegrees,DateUTC
12:54 AM,33.1,23.0,66,29.91,10.0,West,10.4,-,N/A,,Overcast,260,2013-10-22 05:54:00
1:27 AM,32.0,24.8,75,29.86,10.0,WNW,10.4,-,N/A,,Mostly Cloudy,290,2013-10-22 06:27:00
1:38 AM,30.2,23.0,75,29.86,10.0,West,10.4,-,N/A,,Scattered Clouds,270,2013-10-22 06:38:00
1:54 AM,30.9,23.0,72,29.91,10.0,West,10.4,-,N/A,,Partly Cloudy,270,2013-10-22 06:54:00
2:06 AM,32.0,24.8,75,29.88,10.0,West,8.1,-,N/A,,Mostly Cloudy,270,2013-10-22 07:06:00
2:54 AM,30.9,24.1,76,29.92,10.0,West,9.2,-,N/A,,Mostly Cloudy,280,2013-10-22 07:54:00
3:21 AM,30.2,24.8,80,29.88,10.0,West,8.1,-,N/A,,Scattered Clouds,280,2013-10-22 08:21:00
3:41 AM,30.2,24.8,80,29.88,10.0,West,9.2,-,N/A,,Mostly Cloudy,260,2013-10-22 08:41:00
3:54 AM,30.9,25.0,79,29.94,10.0,West,10.4,-,N/A,,Overcast,270,2013-10-22 08:54:00
4:54 AM,30.0,25.0,82,29.93,10.0,West,10.4,-,N/A,,Scattered Clouds,280,2013-10-22 09:54:00
5:54 AM,28.9,25.0,85,29.94,10.0,WNW,9.2,-,N/A,,Clear,290,2013-10-22 10:54:00
6:54 AM,28.0,25.0,88,29.95,10.0,WNW,5.8,-,N/A,,Clear,290,2013-10-22 11:54:00
7:54 AM,28.0,25.0,88,29.96,10.0,WNW,8.1,-,N/A,,Clear,300,2013-10-22 12:54:00
8:54 AM,32.0,28.0,85,29.95,10.0,NW,10.4,-,N/A,,Clear,320,2013-10-22 13:54:00
9:54 AM,37.0,28.0,70,29.96,10.0,NW,12.7,18.4,N/A,,Clear,320,2013-10-22 14:54:00
10:54 AM,39.9,28.0,63,29.96,10.0,NNW,9.2,-,N/A,,Clear,330,2013-10-22 15:54:00
11:54 AM,42.1,28.9,60,29.96,10.0,NNW,6.9,17.3,N/A,,Partly Cloudy,330,2013-10-22 16:54:00
12:54 PM,43.0,27.0,53,29.95,10.0,NNW,10.4,-,N/A,,Mostly Cloudy,340,2013-10-22 17:54:00
1:54 PM,42.1,25.0,51,29.94,10.0,North,9.2,17.3,N/A,,Mostly Cloudy,10,2013-10-22 18:54:00
2:54 PM,45.0,26.1,48,29.94,10.0,NNW,13.8,18.4,N/A,,Mostly Cloudy,340,2013-10-22 19:54:00
3:54 PM,41.0,25.0,53,29.95,10.0,NW,11.5,-,N/A,,Mostly Cloudy,320,2013-10-22 20:54:00
4:54 PM,41.0,26.1,55,29.96,10.0,NW,11.5,-,N/A,,Overcast,310,2013-10-22 21:54:00
5:54 PM,39.9,26.1,58,29.97,10.0,NW,9.2,-,N/A,,Overcast,320,2013-10-22 22:54:00
6:54 PM,39.0,26.1,60,29.98,10.0,NNW,10.4,-,N/A,,Overcast,330,2013-10-22 23:54:00
7:54 PM,37.9,25.0,60,29.99,10.0,North,10.4,-,N/A,,Overcast,350,2013-10-23 00:54:00
8:54 PM,36.0,25.0,64,30.00,10.0,North,6.9,-,N/A,,Overcast,350,2013-10-23 01:54:00
9:54 PM,35.1,25.0,67,30.01,10.0,NNW,6.9,-,N/A,,Overcast,330,2013-10-23 02:54:00
10:54 PM,35.1,23.0,61,30.00,10.0,North,10.4,-,N/A,,Overcast,350,2013-10-23 03:54:00
11:54 PM,34.0,21.9,61,29.99,10.0,North,8.1,-,N/A,,Overcast,360,2013-10-23 04:54:00